Probability
0 0 0 0 0 0 0 0 0 0 0 0 0 0 0 0 0 0 0 0 0 0 0 0 0 0 0 0 0 0 0 0 0 0 0 0 0 0
0 0 0 0 0 0 0 0 0 0 0 0 0 0 0 0 0 0 0 0 0 0 0 0 0 0 0 0 0 0 0 0 0 0 0 0 0 0
0 0 0 0 0 0 0 0 0 0 0 0 0 0 0 0 0 0 0 0 0 0 0 0 0 0 0 0 0 0 0 0 0 0 0 0 0 0
0 0 0 0 0 0 0 0 0 0 0 0 0 0 0 0 0 0 0 0 0 0 0 0 0 0 0 0 0 0 0 0 0 0 0 0 0 0
0 0 0 0 0 0 0 0 0 0 0 0 0 0 0 0 0 0 0 0 0 0 0 0 0 0 0 0 0 0 0 0 0 0 0 0 0 0
0 0 0 0 0 0 0 0 0 0 0 0 0 0 0 0 0 0 0 0 0 0 0 0 0 0 0 0 0 0 0 0 0 0 0 0 0 0
0 0 0 0 0 0 0 0 0 0 0 0 0 0 0 0 0 0 0 0 0 0 0 0 0 0 0 0 0 0 0 0 0 0 0 0 0 0
0 0 0 0 0 0 0 0 0 0 0 0 0 0 0 0 0 0 0 0 0 0 0 0 0 0 0 0 0 0 0 0 0 0 0 0 0 0
0 0 0 0 0 0 0 0 0 0 0 0 0 0 0 0 0 0 0 0 0 0 0 0 0 0 0 0 0 0 0 0 0 0 0 0 0 0
0 0 0 0 0 0 0 0 0 0 0 0 0 0 0 0 0 0 0 0 0 0 0 0 0 0 0 0 0 0 0 0 0 0 0 0 0 0
0 0 0 0 0 0 0 0 0 0 0 0 0 0 0 0 0 0 0 0 0 0 0 0 0 0 0 0 0 0 0 0 0 0 0 0 0 0
0 0 0 0 0 0 0 0 0 0 0 0 0 0 0 0 0 0 0 0 0 0 0 0 0 0 0 0 0 0 0 0 0 0 0 0 0 0
0 0 0 0 0 0 0 0 0 0 0 0 0 0 0 0 0 0 0 0 0 0 0 0 0 0 0 0 0 0 0 0 0 0 0 0 0 0
0 0 0 0 0 0 0 0 0 0 0 0 0 0 0 0 0 0 0 0 0 0 0 0 0 0 0 0 0 0 0 0 0 0 0 0 0 0
0 0 0 0 0 0 0 0 0 0 0 0 0 0 0 0 0 0 0 0 0 0 0 0 0 0 0 0 0 0 0 0 0 0 0 0 0 0
0 0 0 0 0 0 0 0 0 0 0 0 0 0 0 0 0 0 0 0 0 0 0 0 0 0 0 0 0 0 0 0 0 0 0 0 0 0
0 0 0 0 0 0 0 0 0 0 0 0 0 0 0 0 0 0 0 0 0 0 0 0 0 0 0 0 0 0 0 0 0 0 0 0 0 0
0 0 0 0 0 0 0 0 0 0 0 0 0 0 0 0 0 0 0 0 0 0 0 0 0 0 0 0 0 0 0 0 0 0 0 0 0 0
0 0 0 0 0 0 0 0 0 0 0 0 0 0 0 0 0 0 0 0 0 0 0 0 0 0 0 0 0 0 0 0 0 0 0 0 0 0
0 0 0 0 0 0 0 0 0 0 0 0 0 0 0 0 0 0 0 0 0 0 0 0 0 0 0 0 0 0 0 0 0 0 0 0 0 0
0 0 0 0 0 0 0 0 0 0 0 0 0 0 0 0 0 0 0 0 0 0 0 0 0 0 0 0 0 0 0 0 0 0 0 0 0 0
0 0 0 0 0 0 0 0 0 0 0 0 0 0 0 0 0 0 0 0 0 0 0 0 0 0 0 0 0 0 0 0 0 0 0 0 0 0
0 0 0 0 0 0 0 0 0 0 0 0 0 0 0 0 0 0 0 0 0 0 0 0 0 0 0 0 0 0 0 0 0 0 0 0 0 0
Wind_Speed
2 2 1 1 0 0 0 2 3 2 2 2 1 1 1 1 1 1 1 2 2 3 3 3 3 3 3 4 5 5 6 7 8 8 8 8 8 9
1 2 2 1 1 1 1 1 1 2 3 1 1 1 1 1 1 1 1 3 3 4 4 3 3 3 3 4 5 6 7 7 7 8 8 8 9 9
1 1 2 1 1 1 1 1 1 2 3 2 1 1 1 1 1 1 2 2 2 4 4 4 4 4 4 5 5 6 7 7 8 8 9 8 8 9
2 2 2 1 1 1 1 2 2 1 2 3 2 1 2 3 3 2 2 2 2 4 5 5 5 5 5 5 5 6 6 7 7 8 8 8 8 9
2 2 2 2 2 1 1 1 1 1 1 2 3 2 2 2 2 2 2 2 2 3 4 5 6 6 6 6 6 6 6 7 7 7 8 8 8 9
1 2 2 2 3 3 2 2 2 1 1 1 2 2 2 2 1 2 2 2 2 2 3 4 6 6 7 7 7 6 6 7 7 8 8 8 8 9
1 1 1 1 2 2 2 2 3 2 2 2 3 2 2 2 2 2 3 2 2 2 2 3 3 3 4 6 6 6 7 7 8 8 8 9 9 9
1 1 1 2 2 2 3 3 3 3 3 3 4 4 4 3 2 2 3 2 3 2 2 3 2 3 3 3 6 7 7 8 8 8 9 9 9 9
2 2 2 2 2 2 2 3 4 6 6 5 5 5 4 4 3 3 3 4 4 3 2 4 3 4 3 4 7 8 8 8 8 8 8 9 9 9
2 3 2 2 2 2 2 2 2 4 5 4 4 5 4 3 4 4 4 4 4 3 2 4 3 3 4 3 7 8 8 7 8 8 9 9 9 10
2 2 2 2 3 4 2 2 3 4 4 5 6 6 6 6 4 2 2 3 4 4 2 2 3 3 3 3 5 7 7 8 8 9 10 10 9 9
1 2 3 4 4 4 3 3 4 4 3 4 4 5 5 5 6 4 4 4 4 4 3 2 2 1 3 3 3 3 4 7 9 10 10 10 9 5
2 2 2 4 5 5 5 4 6 5 3 3 3 3 3 3 3 3 4 4 4 5 3 2 2 2 3 4 3 3 3 3 4 5 8 10 10 7
2 2 2 4 5 6 5 6 8 6 3 2 3 3 3 3 3 3 4 4 5 6 5 4 3 4 4 5 5 3 3 3 3 4 4 7 8 10
2 3 4 5 5 4 6 7 6 3 3 3 4 4 3 3 3 2 3 3 4 4 4 4 4 4 4 5 5 4 4 4 3 3 4 4 4 4
2 3 5 5 5 5 5 4 3 3 3 3 3 3 2 2 2 2 3 3 3 4 4 4 5 5 5 5 5 6 4 4 3 4 4 5 4 4
2 1 2 2 2 3 3 3 2 2 3 3 3 3 3 3 3 3 3 3 4 4 4 3 3 3 5 5 6 6 5 5 5 4 4 5 5 5
3 2 3 3 3 3 3 3 2 3 3 3 3 3 3 4 4 3 3 4 5 5 4 3 2 3 3 4 7 6 5 5 4 4 4 5 7 5
3 3 3 3 3 3 3 3 3 3 3 3 3 3 3 4 4 4 4 4 5 5 4 3 3 4 6 7 4 6 5 4 4 4 4 5 6 6
3 3 4 4 3 3 4 3 3 3 3 3 3 4 4 4 4 5 5 5 5 5 4 4 4 4 6 6 5 4 6 5 4 5 5 5 5 7
3 4 4 4 4 4 4 4 4 4 4 3 3 4 4 4 5 5 5 7 6 5 5 5 5 5 3 3 4 4 3 5 6 5 4 4 4 4
4 4 4 4 4 4 4 4 4 4 4 4 4 4 4 4 5 6 5 5 5 5 5 4 3 3 3 4 6 5 5 4 5 7 7 6 4 4
4 4 4 4 4 3 3 4 4 4 4 4 4 4 4 4 4 4 5 5 4 5 5 4 3 3 4 4 5 5 6 5 4 4 4 6 8 9
Wind_Direction
181 181 185 192 144 133 153 166 173 221 250 238 237 256 224 191 221 205 225 246 269 283 294 304 308 309 306 308 307 309 311 311 309 309 308 306 305 306
172 175 185 187 169 178 200 221 198 198 236 236 231 244 255 233 223 209 240 252 258 271 276 282 289 298 305 310 309 305 305 305 303 303 303 304 306 307
168 172 191 162 172 197 194 215 230 201 231 261 256 231 237 247 249 237 234 229 247 259 264 271 277 285 289 293 295 297 299 301 301 302 303 304 305 306
190 191 202 179 176 199 198 217 235 228 217 253 259 245 244 241 236 235 242 238 237 250 256 262 270 280 285 287 291 296 299 300 301 303 304 303 302 303
193 197 204 184 195 202 202 222 242 255 235 240 259 252 256 245 244 252 248 257 256 252 256 261 268 275 278 282 287 290 291 295 296 298 302 301 300 301
200 200 203 198 201 201 208 221 227 237 235 244 258 258 259 255 237 248 263 255 260 264 267 269 269 270 273 276 280 280 283 289 291 293 297 300 298 295
228 212 211 201 217 223 223 216 212 220 228 238 251 254 252 240 242 248 259 268 263 247 255 259 257 253 257 266 271 273 278 283 286 291 297 298 298 296
261 271 266 245 237 255 264 252 233 225 228 232 246 242 245 242 243 244 255 265 273 247 241 262 244 252 254 245 265 275 279 282 286 291 295 297 297 296
245 249 268 270 268 248 264 276 274 265 257 246 244 247 245 236 231 247 250 259 259 243 241 267 252 256 259 268 274 275 278 283 288 292 293 294 296 295
240 233 233 244 250 253 253 262 266 269 259 248 241 252 252 241 230 240 246 266 276 256 209 254 258 257 271 263 266 267 275 281 286 290 293 296 298 298
253 242 236 244 254 260 252 255 276 282 284 267 262 265 267 265 259 249 246 259 275 266 221 229 265 281 275 261 257 261 271 277 283 289 295 297 299 301
259 257 257 254 252 255 244 236 258 271 276 280 276 278 266 255 258 237 227 243 267 268 227 206 249 277 285 265 253 250 260 273 281 286 290 293 296 297
245 255 256 256 253 254 259 246 257 273 271 265 270 272 264 251 243 239 234 232 245 258 232 207 244 245 248 278 273 251 245 260 270 277 283 286 287 287
235 241 248 265 272 272 268 266 273 279 267 262 262 262 256 255 253 250 248 250 248 250 241 218 234 237 253 272 274 263 256 255 257 265 267 277 280 284
242 250 265 274 284 284 274 273 274 262 255 257 259 260 248 246 255 267 270 263 266 260 245 236 233 236 239 254 264 267 280 272 250 250 261 265 266 267
256 259 274 276 276 276 278 272 253 244 250 251 260 260 255 250 254 254 264 269 277 279 260 239 231 227 248 255 254 263 257 251 253 258 267 270 267 255
259 255 256 257 256 259 259 258 245 246 252 247 248 257 262 267 266 254 251 258 260 268 278 271 245 237 243 248 259 256 257 261 255 258 267 274 270 257
256 233 241 242 248 253 254 259 254 249 248 245 248 254 261 263 270 265 254 254 257 262 263 264 267 287 282 265 235 243 250 259 263 261 258 270 277 271
253 237 242 244 248 251 252 253 256 255 249 248 253 255 258 263 265 265 261 261 259 260 258 249 245 257 275 282 264 216 233 256 259 264 258 261 269 273
242 242 246 246 246 249 251 252 256 256 252 250 252 252 252 258 261 262 260 258 262 264 263 252 243 245 256 267 275 269 235 237 250 262 270 272 270 273
246 247 249 251 250 250 252 250 248 251 251 248 251 253 253 254 258 259 260 262 265 261 260 259 252 256 265 267 270 272 264 242 244 253 262 270 280 277
245 247 250 250 252 252 251 248 249 249 247 249 250 252 254 254 258 261 258 260 262 262 266 268 260 255 257 262 269 275 283 287 271 264 258 247 249 254
247 248 250 251 249 250 251 249 249 250 247 247 248 249 253 260 261 260 261 261 264 265 266 268 268 265 262 258 266 274 276 283 287 290 283 273 266 267